Location: Newark
(31.6503°N, 7.8361°W)
Time: 18:08:44
(UTC+00:00)

N. Korean satellite - Visible Passes

Search period start: 20 November 2019 00:00
Search period end: 30 November 2019 00:00
Orbit: 456 x 506 km, 97.2° (Epoch: 20 November)

Date Brightness Start Highest point End Pass type
(mag) Time Alt. Az. Time Alt. Az. Time Alt. Az.
20 Nov 8.8 05:48:04 10° NE 05:51:19 29° E 05:54:30 10° SSE visible
20 Nov 7.0 17:51:03 10° S 17:54:38 70° W 17:58:18 10° NNW visible
21 Nov 10.0 05:23:58 10° ENE 05:25:48 13° E 05:27:37 10° SE visible
22 Nov 6.6 06:30:17 10° N 06:33:54 61° WNW 06:37:26 10° SSW visible
22 Nov 9.9 18:34:55 10° SW 18:37:20 17° W 18:39:46 10° NW visible
23 Nov 7.5 06:04:57 10° NNE 06:08:32 53° E 06:12:03 10° S visible
23 Nov 8.4 18:08:27 10° SSW 18:11:51 37° W 18:15:18 10° NNW visible
24 Nov 9.2 05:40:08 10° NE 05:43:05 23° E 05:45:57 10° SSE visible
25 Nov 10.3 05:17:19 10° E 05:17:31 10° E 05:17:44 10° E visible
26 Nov 6.5 06:22:03 10° N 06:25:41 81° WNW 06:29:14 10° SSW visible
26 Nov 9.5 18:26:12 10° SSW 18:29:04 22° W 18:31:58 10° NW visible
27 Nov 8.1 05:56:51 10° NNE 06:00:17 39° E 06:03:38 10° S visible
27 Nov 7.7 18:00:03 10° S 18:03:35 49° W 18:07:12 10° NNW visible
28 Nov 9.6 05:32:18 10° NE 05:34:47 17° E 05:37:13 10° SE visible
29 Nov 6.9 06:39:20 10° N 06:42:46 43° WNW 06:46:08 10° SSW visible
29 Nov 10.1 18:44:36 10° WSW 18:46:18 13° W 18:48:01 10° WNW visible
